, FL

(GMT )
Crestview

Weather History for KEGI - January, 2014

Change the Weather History Date:

Thursday, January 30, 2014

  Actual Average Record
Temperature  
Mean Temperature 26 °F -  
Max Temperature 37 °F - - ()
Min Temperature 15 °F - - ()
Degree Days  
Heating Degree Days 39    
Moisture  
Dew Point 24 °F    
Average Humidity 88    
Maximum Humidity 99    
Minimum Humidity 78    
Precipitation  
Precipitation 0.00 in - - ()
Sea Level Pressure  
Sea Level Pressure 30.27 in    
Wind  
Wind Speed 1 mph (NNE)    
Max Wind Speed 8 mph    
Max Gust Speed -    
Visibility 10 miles    
Events      
Averages and records for this station are not official NWS values.
T = Trace of Precipitation, MM = Missing Value Source: NWS Daily Summary

Daily Weather History Graph

Daily Weather History Graph

Search for Another Location

Airport or City:

Trip Planner

Search our weather history database for the weather conditions in past years. The results will help you decide how hot, cold, wet, or windy it might be!

Date:

Astronomy

Jan. 30, 2014 Rise Set
Actual Time 6:38 AM CST 5:20 PM CST
Civil Twilight 6:13 AM CST 5:45 PM CST
Nautical Twilight 5:44 AM CST 6:14 PM CST
Astronomical Twilight 5:15 AM CST 6:43 PM CST
Moon 6:06 AM CST (1/30) 5:27 PM CST (1/30)
Length of Visible Light 11h 32m
Length of Day
10h 42m
Waning Crescent, 0% of the Moon is Illuminated
Jan 30
Waning Crescent
Jan 30
New
Feb 6
First Quarter
Feb 14
Full
Feb 22
Last Quarter

Hourly Weather History & Observations

Time (CST) Temp. Windchill Dew Point Humidity Pressure Visibility Wind Dir Wind Speed Gust Speed Precip Events Conditions
12:58 AM 18.3 °F - 14.9 °F 86% 30.33 in 10.0 mi Calm Calm - N/A   Clear
2:58 AM 18.1 °F - 14.2 °F 84% 30.30 in 10.0 mi Calm Calm - N/A   Clear
3:58 AM 17.4 °F - 13.6 °F 85% 30.31 in 10.0 mi Calm Calm - N/A   Clear
4:58 AM 16.9 °F - 13.6 °F 87% 30.31 in 10.0 mi Calm Calm - N/A   Clear
5:53 AM 15.8 °F - 14.0 °F 93% 30.31 in 10.0 mi Calm Calm - N/A   Mostly Cloudy
5:58 AM 16.9 °F - 14.0 °F 88% 30.33 in 10.0 mi Calm Calm - N/A   Mostly Cloudy
6:44 AM 19.4 °F - 17.6 °F 93% 30.31 in 10.0 mi Calm Calm - N/A   Overcast
6:58 AM 19.8 °F - 17.2 °F 90% 30.33 in 10.0 mi Calm Calm - N/A   Overcast
7:58 AM 22.3 °F - 20.3 °F 92% 30.33 in 10.0 mi Calm Calm - N/A   Overcast
8:58 AM 24.4 °F - 22.5 °F 92% 30.34 in 10.0 mi Calm Calm - N/A   Overcast
9:08 AM 24.8 °F - 23.0 °F 93% 30.32 in 10.0 mi Calm Calm - N/A   Overcast
9:38 AM 28.4 °F - 24.8 °F 86% 30.30 in 10.0 mi Calm Calm - N/A   Mostly Cloudy
9:48 AM 28.4 °F - 24.8 °F 86% 30.30 in 10.0 mi Calm Calm - N/A   Scattered Clouds
9:58 AM 28.8 °F - 24.8 °F 85% 30.32 in 10.0 mi North - - N/A   Scattered Clouds
10:35 AM 30.2 °F - 24.8 °F 80% 30.30 in 10.0 mi Calm Calm - N/A   Mostly Cloudy
10:45 AM 30.2 °F - 26.6 °F 86% 30.29 in 9.0 mi Calm Calm - N/A   Scattered Clouds
10:58 AM 30.7 °F - 26.2 °F 83% 30.31 in 8.0 mi Calm Calm - N/A   Scattered Clouds
11:13 AM 32.0 °F - 26.6 °F 80% 30.29 in 10.0 mi Calm Calm - N/A   Mostly Cloudy
11:28 AM 32.0 °F - 26.6 °F 80% 30.28 in 10.0 mi Calm Calm - N/A   Mostly Cloudy
11:43 AM 32.0 °F - 26.6 °F 80% 30.27 in 10.0 mi Calm Calm - N/A   Scattered Clouds
11:53 AM 32.0 °F - 28.4 °F 87% 30.27 in 10.0 mi Calm Calm - N/A   Mostly Cloudy
11:58 AM 31.6 °F - 28.2 °F 87% 30.29 in 10.0 mi Calm Calm - N/A   Mostly Cloudy
12:03 PM 32.0 °F - 28.4 °F 87% 30.27 in 10.0 mi Calm Calm - N/A   Scattered Clouds
12:14 PM 32.0 °F - 28.4 °F 87% 30.25 in 10.0 mi Calm Calm - N/A   Mostly Cloudy
12:19 PM 32.0 °F - 26.6 °F 80% 30.25 in 10.0 mi Calm Calm - N/A   Scattered Clouds
12:33 PM 32.0 °F - 28.4 °F 87% 30.25 in 10.0 mi Calm Calm - N/A   Mostly Cloudy
12:58 PM 31.8 °F - 28.2 °F 87% 30.27 in 10.0 mi Calm Calm - N/A   Mostly Cloudy
1:22 PM 32.0 °F 24.8 °F 28.4 °F 87% 30.24 in 10.0 mi NNE 8.1 mph - N/A   Mostly Cloudy
1:55 PM 33.8 °F 27.7 °F 30.2 °F 87% 30.27 in 10.0 mi North 6.9 mph - N/A   Mostly Cloudy
2:38 PM 35.6 °F - 30.2 °F 81% 30.22 in 10.0 mi Variable 2.3 mph - N/A   Mostly Cloudy
2:56 PM 35.1 °F 30.1 °F 29.8 °F 81% 30.21 in 10.0 mi NE 5.8 mph - N/A   Mostly Cloudy
3:55 PM 37.4 °F 33.8 °F 31.1 °F 78% 30.21 in 10.0 mi North 4.6 mph - N/A   Mostly Cloudy
4:56 PM 36.1 °F 33.5 °F 30.6 °F 80% 30.24 in 10.0 mi North 3.5 mph - N/A   Scattered Clouds
5:55 PM 32.0 °F - 30.4 °F 94% 30.20 in 10.0 mi Calm Calm - N/A   Scattered Clouds
6:55 PM 28.6 °F - 27.9 °F 97% 30.19 in 5.0 mi North 2.3 mph - N/A   Clear
7:55 PM 26.8 °F - 26.4 °F 99% 30.21 in 6.0 mi North 1.2 mph - N/A   Clear
8:55 PM 24.4 °F - 23.7 °F 97% 30.19 in 6.0 mi NE 2.3 mph - N/A   Clear
9:55 PM 26.1 °F - 25.5 °F 98% 30.20 in 6.0 mi East 1.2 mph - N/A   Clear
10:55 PM 24.6 °F 18.8 °F 23.7 °F 96% 30.20 in 10.0 mi North 4.6 mph - N/A   Clear
11:55 PM 23.0 °F - 22.1 °F 96% 30.20 in 10.0 mi NE 1.2 mph - N/A   Clear